sat.trackr.live / text

‹ back to catalog

STARLINK-31968

NORAD 59927 · 2024-106F

PAYLOAD ACTIVE UNKNOWN

§ Identity

Operator
Country
US
Launch date
2024-06-01
Launch site
AFETR
Launch vehicle
Mass (kg)
RCS (m²)

Purposes: comms

External: N2YO · Heavens-Above · Gunter

§ Orbital elements

Epoch: 2026-09-21T04:19:08.753088Z

Period
94.27 min
Inclination
43.0038°
Eccentricity
0.0001520
Mean motion
15.27577374 rev/d
Perigee alt
482.0 km
Apogee alt
484.1 km
Semi-major
6,861.2 km
B*
2.4734e-5
RAAN
308.2282°
Arg perigee
267.7443°
Mean anomaly
92.3234°
Rev number
13,047

§ Raw data

STARLINK-319681 59927U 24106F   26264.17996242  .00000418  00000+0  24734-4 0  99912 59927  43.0038 308.2282 0001520 267.7443  92.3234 15.27577374130474

JSON: /api/v1/satellites/59927 · /tle

For live sub-satellite position, see the globe view (requires WebGL).

§ Visibility from observer

Set your observer location to see the next 7 days of passes ≥ 10°. The values pass through the URL so the page stays shareable.

No JS? Fill the form by hand. The geolocation button needs JavaScript.